Location: Sweet Grass
(48.9965°N, 111.9649°W)
Time: 08:21:43
(UTC+00:00)

TIGRISAT - Visible Passes

Search period start: 01 April 2023 00:00
Search period end: 11 April 2023 00:00
Orbit: 601 x 681 km, 97.7° (Epoch: 31 March)

Date Brightness Start Highest point End Pass type
(mag) Time Alt. Az. Time Alt. Az. Time Alt. Az.
01 Apr ? 11:14:41 10° ESE 11:18:27 28° ENE 11:22:20 10° N visible
02 Apr ? 11:37:59 10° SE 11:42:14 44° ENE 11:46:36 10° N visible
03 Apr ? 02:37:45 10° NNW 02:41:13 21° WNW 02:44:40 10° WSW visible
03 Apr ? 10:28:48 10° ENE 10:30:21 12° NE 10:31:55 10° NE visible
03 Apr ? 12:01:37 10° SSE 12:06:04 74° ENE 12:10:40 10° N visible
04 Apr ? 03:02:32 10° NNW 03:04:52 14° WNW 03:07:10 10° W visible
04 Apr ? 10:50:54 10° ESE 10:53:56 18° ENE 10:57:02 10° NNE visible
04 Apr ? 12:25:33 10° S 12:30:00 66° WSW 12:34:37 10° NNW visible
05 Apr ? 11:13:47 10° ESE 11:17:36 28° ENE 11:21:31 10° N visible
06 Apr ? 11:37:04 10° SE 11:41:21 44° ENE 11:45:45 10° N visible
07 Apr ? 02:36:53 10° NNW 02:40:21 21° WNW 02:43:47 10° WSW visible
07 Apr ? 10:27:50 10° ENE 10:29:27 12° NE 10:31:05 10° NNE visible
07 Apr ? 12:00:40 10° SSE 12:05:10 74° ENE 12:09:49 10° N visible
08 Apr ? 03:01:38 10° NNW 03:03:56 14° NW 03:06:14 10° W visible
08 Apr ? 10:49:55 10° ESE 10:53:01 18° ENE 10:56:08 10° NNE visible
09 Apr ? 11:12:47 10° ESE 11:16:39 28° ENE 11:20:35 10° N visible
10 Apr ? 11:36:02 10° SE 11:40:22 44° ENE 11:44:47 10° N visible
